| time (UTC) | temp F | wind direction | speed MPH | gust MPH | rain 1hr in | rain 24hr in | rain mn in | humidity % | barometer mb |
| 20260505200330 | 56 | 182 | 4.0 | 12.0 | 0.00 | 0.00 | 0.00 | 50 | 1013.2 |
| 20260505195835 | 55 | 294 | 5.0 | 12.0 | 0.00 | 0.00 | 0.00 | 51 | 1013.2 |
| 20260505195341 | 55 | 249 | 5.0 | 12.0 | 0.00 | 0.00 | 0.00 | 52 | 1013.2 |
| 20260505194826 | 55 | 247 | 5.0 | 11.0 | 0.00 | 0.00 | 0.00 | 52 | 1013.1 |
| 20260505194334 | 55 | 202 | 5.0 | 15.0 | 0.00 | 0.00 | 0.00 | 55 | 1013.2 |
| 20260505193840 | 56 | 249 | 4.0 | 15.0 | 0.00 | 0.00 | 0.00 | 50 | 1013.4 |
| 20260505193328 | 57 | 246 | 2.0 | 11.0 | 0.00 | 0.00 | 0.00 | 48 | 1013.1 |
| 20260505192836 | 57 | 223 | 4.0 | 12.0 | 0.00 | 0.00 | 0.00 | 48 | 1013.1 |
| 20260505192341 | 57 | 248 | 3.0 | 14.0 | 0.00 | 0.00 | 0.00 | 47 | 1013.2 |
| 20260505191831 | 57 | 232 | 4.0 | 13.0 | 0.00 | 0.00 | 0.00 | 48 | 1013.2 |
| 20260505191336 | 57 | 208 | 2.0 | 12.0 | 0.00 | 0.00 | 0.00 | 48 | 1013.2 |
| 20260505190841 | 56 | 242 | 2.0 | 12.0 | 0.00 | 0.00 | 0.00 | 51 | 1013.2 |
| 20260505190326 | 55 | 257 | 2.0 | 7.0 | 0.00 | 0.00 | 0.00 | 53 | 1013.2 |
| 20260505185831 | 55 | 250 | 2.0 | 11.0 | 0.00 | 0.00 | 0.00 | 55 | 1013.2 |
| 20260505185336 | 56 | 199 | 5.0 | 12.0 | 0.00 | 0.00 | 0.00 | 51 | 1013.3 |
| 20260505184821 | 57 | 202 | 6.0 | 12.0 | 0.00 | 0.00 | 0.00 | 43 | 1013.2 |
| 20260505184330 | 57 | 190 | 3.0 | 7.0 | 0.00 | 0.00 | 0.00 | 43 | 1013.0 |
| 20260505183835 | 57 | 140 | 3.0 | 10.0 | 0.00 | 0.00 | 0.00 | 40 | 1013.0 |
| 20260505183340 | 57 | 158 | 4.0 | 10.0 | 0.00 | 0.00 | 0.00 | 40 | 1013.3 |
| 20260505182828 | 57 | 243 | 3.0 | 7.0 | 0.00 | 0.00 | 0.00 | 40 | 1013.1 |
| 20260505182333 | 57 | 189 | 3.0 | 9.0 | 0.00 | 0.00 | 0.00 | 39 | 1013.2 |
| 20260505181838 | 57 | 192 | 3.0 | 9.0 | 0.00 | 0.00 | 0.00 | 38 | 1013.1 |
| 20260505181326 | 57 | 186 | 5.0 | 8.0 | 0.00 | 0.00 | 0.00 | 39 | 1013.0 |
| 20260505180832 | 56 | 168 | 1.0 | 6.0 | 0.00 | 0.00 | 0.00 | 40 | 1013.1 |
| 20260505180337 | 56 | 178 | 1.0 | 8.0 | 0.00 | 0.00 | 0.00 | 40 | 1013.1 |
| 20260505175843 | 56 | 95 | 2.0 | 8.0 | 0.00 | 0.00 | 0.00 | 40 | 1013.2 |
| 20260505175328 | 55 | 163 | 2.0 | 7.0 | 0.00 | 0.00 | 0.00 | 40 | 1013.2 |
| 20260505174833 | 55 | 134 | 3.0 | 7.0 | 0.00 | 0.00 | 0.00 | 40 | 1013.4 |
| 20260505174338 | 55 | 172 | 2.0 | 5.0 | 0.00 | 0.00 | 0.00 | 40 | 1013.6 |
| 20260505173827 | 55 | 171 | 1.0 | 6.0 | 0.00 | 0.00 | 0.00 | 40 | 1013.6 |
| 20260505173332 | 56 | 198 | 3.0 | 6.0 | 0.00 | 0.00 | 0.00 | 39 | 1013.7 |
| 20260505172839 | 55 | 82 | 1.0 | 7.0 | 0.00 | 0.00 | 0.00 | 41 | 1013.6 |
| 20260505172327 | 55 | 81 | 2.0 | 7.0 | 0.00 | 0.00 | 0.00 | 40 | 1013.5 |
| 20260505171832 | 55 | 118 | 2.0 | 7.0 | 0.00 | 0.00 | 0.00 | 40 | 1013.6 |
| 20260505171337 | 55 | 150 | 3.0 | 10.0 | 0.00 | 0.00 | 0.00 | 41 | 1013.7 |
| 20260505170842 | 55 | 108 | 4.0 | 10.0 | 0.00 | 0.00 | 0.00 | 40 | 1013.7 |
| 20260505170327 | 54 | 92 | 3.0 | 7.0 | 0.00 | 0.00 | 0.00 | 41 | 1013.7 |
| 20260505165832 | 54 | 169 | 1.0 | 7.0 | 0.00 | 0.00 | 0.00 | 42 | 1013.8 |
| 20260505165337 | 54 | 149 | 2.0 | 8.0 | 0.00 | 0.00 | 0.00 | 41 | 1013.9 |
| 20260505164826 | 54 | 182 | 1.0 | 8.0 | 0.00 | 0.00 | 0.00 | 43 | 1014.0 |
| 20260505164334 | 54 | 199 | 4.0 | 8.0 | 0.00 | 0.00 | 0.00 | 42 | 1014.1 |
| 20260505163839 | 53 | 236 | 2.0 | 10.0 | 0.00 | 0.00 | 0.00 | 44 | 1014.1 |
| 20260505163324 | 53 | 223 | 3.0 | 10.0 | 0.00 | 0.00 | 0.00 | 43 | 1014.2 |
| 20260505162829 | 53 | 244 | 3.0 | 8.0 | 0.00 | 0.00 | 0.00 | 44 | 1014.2 |
| 20260505162338 | 53 | 232 | 3.0 | 8.0 | 0.00 | 0.00 | 0.00 | 44 | 1014.1 |
| 20260505161843 | 53 | 198 | 1.0 | 7.0 | 0.00 | 0.00 | 0.00 | 45 | 1014.2 |
| 20260505161329 | 52 | 214 | 1.0 | 8.0 | 0.00 | 0.00 | 0.00 | 46 | 1014.2 |
| 20260505160833 | 52 | 208 | 3.0 | 7.0 | 0.00 | 0.00 | 0.00 | 45 | 1014.4 |
| 20260505160339 | 52 | 248 | 2.0 | 7.0 | 0.00 | 0.00 | 0.00 | 45 | 1014.3 |
| 20260505153341 | 52 | 252 | 2.0 | 11.0 | 0.00 | 0.00 | 0.00 | 43 | 1014.4 |
| 20260505152826 | 52 | 202 | 4.0 | 12.0 | 0.00 | 0.00 | 0.00 | 46 | 1014.3 |
| 20260505152331 | 52 | 258 | 5.0 | 12.0 | 0.00 | 0.00 | 0.00 | 46 | 1014.3 |
| 20260505151836 | 53 | 246 | 4.0 | 10.0 | 0.00 | 0.00 | 0.00 | 46 | 1014.3 |
| 20260505151341 | 53 | 248 | 2.0 | 10.0 | 0.00 | 0.00 | 0.00 | 45 | 1014.3 |
| 20260505150830 | 53 | 237 | 2.0 | 8.0 | 0.00 | 0.00 | 0.00 | 44 | 1014.3 |
| 20260505150335 | 53 | 248 | 3.0 | 8.0 | 0.00 | 0.00 | 0.00 | 45 | 1014.3 |
| 20260505140331 | 54 | 268 | 3.0 | 8.0 | 0.00 | 0.00 | 0.00 | 42 | 1014.5 |
| 20260505124828 | 50 | 254 | 2.0 | 6.0 | 0.00 | 0.00 | 0.00 | 47 | 1014.5 |
| 20260505124334 | 49 | 256 | 1.0 | 6.0 | 0.00 | 0.00 | 0.00 | 46 | 1014.6 |
| 20260505123825 | 48 | 262 | 1.0 | 5.0 | 0.00 | 0.00 | 0.00 | 46 | 1014.6 |
| 20260505123331 | 48 | 271 | 1.0 | 2.0 | 0.00 | 0.00 | 0.00 | 47 | 1014.5 |
| 20260505122838 | 48 | 286 | 0.0 | 1.0 | 0.00 | 0.00 | 0.00 | 47 | 1014.5 |
| 20260505122323 | 48 | 286 | 0.0 | 0.0 | 0.00 | 0.00 | 0.00 | 46 | 1014.5 |
| 20260505121832 | 48 | 286 | 0.0 | 0.0 | 0.00 | 0.00 | 0.00 | 45 | 1014.3 |
| 20260505121338 | 49 | 286 | 0.0 | 0.0 | 0.00 | 0.00 | 0.00 | 44 | 1014.2 |
| 20260505120824 | 49 | 286 | 0.0 | 0.0 | 0.00 | 0.00 | 0.00 | 43 | 1014.2 |
| 20260505120330 | 49 | 286 | 0.0 | 0.0 | 0.00 | 0.00 | 0.00 | 43 | 1014.1 |
| 20260505115836 | 49 | 286 | 0.0 | 4.0 | 0.00 | 0.00 | 0.00 | 43 | 1014.0 |
| 20260505115326 | 49 | 286 | 1.0 | 4.0 | 0.00 | 0.00 | 0.00 | 42 | 1013.9 |
| 20260505114831 | 49 | 259 | 0.0 | 2.0 | 0.00 | 0.00 | 0.00 | 42 | 1014.0 |
| 20260505114338 | 50 | 259 | 0.0 | 4.0 | 0.00 | 0.00 | 0.00 | 42 | 1014.1 |
| 20260505113824 | 49 | 259 | 1.0 | 5.0 | 0.00 | 0.00 | 0.00 | 42 | 1014.2 |
| 20260505113331 | 49 | 248 | 1.0 | 5.0 | 0.00 | 0.00 | 0.00 | 42 | 1014.3 |
| 20260505112837 | 49 | 254 | 0.0 | 2.0 | 0.00 | 0.00 | 0.00 | 42 | 1014.3 |
| 20260505112322 | 50 | 254 | 0.0 | 0.0 | 0.00 | 0.00 | 0.00 | 42 | 1014.3 |
| 20260505111832 | 50 | 254 | 0.0 | 0.0 | 0.00 | 0.00 | 0.00 | 42 | 1014.1 |
| 20260505111337 | 50 | 254 | 0.0 | 0.0 | 0.00 | 0.00 | 0.00 | 41 | 1014.2 |
| 20260505110823 | 50 | 254 | 0.0 | 0.0 | 0.00 | 0.00 | 0.00 | 41 | 1014.2 |
| 20260505110336 | 50 | 254 | 0.0 | 0.0 | 0.00 | 0.00 | 0.00 | 41 | 1014.1 |
| 20260505101836 | 52 | 235 | 1.0 | 7.0 | 0.00 | 0.00 | 0.00 | 36 | 1013.8 |
| 20260505101326 | 52 | 243 | 0.0 | 7.0 | 0.00 | 0.00 | 0.00 | 36 | 1013.8 |
| 20260505100831 | 53 | 235 | 0.0 | 9.0 | 0.00 | 0.00 | 0.00 | 36 | 1013.8 |
| 20260505100337 | 53 | 250 | 1.0 | 9.0 | 0.00 | 0.00 | 0.00 | 35 | 1013.7 |
| 20260505095842 | 53 | 253 | 2.0 | 8.0 | 0.00 | 0.00 | 0.00 | 35 | 1013.8 |
| 20260505095328 | 53 | 226 | 2.0 | 6.0 | 0.00 | 0.00 | 0.00 | 36 | 1013.8 |
| 20260505094832 | 53 | 255 | 2.0 | 7.0 | 0.00 | 0.00 | 0.00 | 35 | 1013.9 |
| 20260505094338 | 53 | 258 | 1.0 | 7.0 | 0.00 | 0.00 | 0.00 | 36 | 1013.8 |
| 20260505093843 | 53 | 298 | 1.0 | 5.0 | 0.00 | 0.00 | 0.00 | 36 | 1013.8 |
| 20260505093329 | 53 | 269 | 1.0 | 4.0 | 0.00 | 0.00 | 0.00 | 38 | 1013.8 |
| 20260505092834 | 53 | 279 | 0.0 | 3.0 | 0.00 | 0.00 | 0.00 | 38 | 1013.8 |
| 20260505092327 | 53 | 279 | 1.0 | 3.0 | 0.00 | 0.00 | 0.00 | 37 | 1013.8 |
| 20260505091834 | 53 | 308 | 1.0 | 6.0 | 0.00 | 0.00 | 0.00 | 37 | 1013.9 |
| 20260505091340 | 53 | 312 | 0.0 | 6.0 | 0.00 | 0.00 | 0.00 | 36 | 1013.9 |
| 20260505090827 | 53 | 308 | 2.0 | 6.0 | 0.00 | 0.00 | 0.00 | 36 | 1014.1 |
| 20260505090337 | 53 | 317 | 1.0 | 6.0 | 0.00 | 0.00 | 0.00 | 35 | 1014.1 |
| 20260505085822 | 53 | 283 | 0.0 | 4.0 | 0.00 | 0.00 | 0.00 | 35 | 1014.0 |
| 20260505085331 | 53 | 283 | 0.0 | 3.0 | 0.00 | 0.00 | 0.00 | 35 | 1014.1 |
| 20260505084836 | 53 | 263 | 0.0 | 2.0 | 0.00 | 0.00 | 0.00 | 36 | 1014.1 |
| 20260505084325 | 53 | 263 | 0.0 | 1.0 | 0.00 | 0.00 | 0.00 | 36 | 1014.2 |
| 20260505083835 | 53 | 263 | 0.0 | 1.0 | 0.00 | 0.00 | 0.00 | 36 | 1014.3 |
| 20260505083342 | 53 | 263 | 0.0 | 0.0 | 0.00 | 0.00 | 0.00 | 36 | 1014.4 |
| 20260505082828 | 53 | 263 | 0.0 | 2.0 | 0.00 | 0.00 | 0.00 | 35 | 1014.5 |
| 20260505082333 | 54 | 263 | 0.0 | 2.0 | 0.00 | 0.00 | 0.00 | 35 | 1014.6 |
| 20260505081838 | 54 | 263 | 0.0 | 1.0 | 0.00 | 0.00 | 0.00 | 34 | 1014.9 |
| 20260505081323 | 54 | 263 | 0.0 | 3.0 | 0.00 | 0.00 | 0.00 | 34 | 1014.9 |
| 20260505080829 | 54 | 263 | 0.0 | 3.0 | 0.00 | 0.00 | 0.00 | 34 | 1014.9 |
| 20260505080334 | 54 | 268 | 0.0 | 1.0 | 0.00 | 0.00 | 0.00 | 34 | 1014.8 |
| 20260505075824 | 55 | 268 | 0.0 | 0.0 | 0.00 | 0.00 | 0.00 | 34 | 1014.7 |
| 20260505075330 | 55 | 268 | 0.0 | 0.0 | 0.00 | 0.00 | 0.00 | 33 | 1014.7 |
| 20260505074840 | 55 | 268 | 0.0 | 0.0 | 0.00 | 0.00 | 0.00 | 33 | 1014.8 |
| 20260505074325 | 56 | 268 | 0.0 | 0.0 | 0.00 | 0.00 | 0.00 | 31 | 1014.8 |
| 20260505073830 | 56 | 268 | 0.0 | 2.0 | 0.00 | 0.00 | 0.00 | 31 | 1014.8 |
| 20260505073338 | 56 | 268 | 0.0 | 2.0 | 0.00 | 0.00 | 0.00 | 31 | 1014.6 |
| 20260505072843 | 56 | 268 | 0.0 | 3.0 | 0.00 | 0.00 | 0.00 | 30 | 1014.5 |
| 20260505072328 | 56 | 271 | 0.0 | 3.0 | 0.00 | 0.00 | 0.00 | 30 | 1014.3 |
| 20260505071833 | 56 | 271 | 1.0 | 4.0 | 0.00 | 0.00 | 0.00 | 30 | 1014.4 |
| 20260505071338 | 56 | 275 | 1.0 | 4.0 | 0.00 | 0.00 | 0.00 | 30 | 1014.3 |
| 20260505070843 | 56 | 313 | 1.0 | 6.0 | 0.00 | 0.00 | 0.00 | 30 | 1014.3 |
| 20260505070329 | 56 | 268 | 1.0 | 6.0 | 0.00 | 0.00 | 0.00 | 31 | 1014.5 |
| 20260505065842 | 56 | 252 | 0.0 | 0.0 | 0.00 | 0.00 | 0.00 | 32 | 1014.5 |
| 20260505065327 | 56 | 252 | 0.0 | 1.0 | 0.00 | 0.00 | 0.00 | 32 | 1014.5 |
| 20260505064832 | 57 | 252 | 0.0 | 1.0 | 0.00 | 0.00 | 0.00 | 32 | 1014.5 |
| 20260505064338 | 57 | 253 | 0.0 | 1.0 | 0.00 | 0.00 | 0.00 | 32 | 1014.5 |
| 20260505063825 | 57 | 253 | 0.0 | 2.0 | 0.00 | 0.00 | 0.00 | 32 | 1014.4 |
| 20260505063335 | 57 | 253 | 0.0 | 2.0 | 0.00 | 0.00 | 0.00 | 31 | 1014.4 |
| 20260505062840 | 58 | 253 | 0.0 | 0.0 | 0.00 | 0.00 | 0.00 | 31 | 1014.4 |
| 20260505062326 | 58 | 253 | 0.0 | 4.0 | 0.00 | 0.00 | 0.00 | 30 | 1014.4 |
| 20260505061832 | 58 | 253 | 1.0 | 4.0 | 0.00 | 0.00 | 0.00 | 30 | 1014.4 |
| 20260505061323 | 58 | 257 | 0.0 | 3.0 | 0.00 | 0.00 | 0.00 | 30 | 1014.4 |
| 20260505060828 | 58 | 257 | 0.0 | 7.0 | 0.00 | 0.00 | 0.00 | 30 | 1014.4 |
| 20260505060338 | 59 | 260 | 1.0 | 7.0 | 0.00 | 0.00 | 0.00 | 30 | 1014.5 |
| 20260505055843 | 59 | 263 | 2.0 | 6.0 | 0.00 | 0.00 | 0.00 | 30 | 1014.5 |
| 20260505055328 | 59 | 222 | 3.0 | 8.0 | 0.00 | 0.00 | 0.00 | 30 | 1014.5 |
| 20260505054833 | 59 | 245 | 2.0 | 8.0 | 0.00 | 0.00 | 0.00 | 30 | 1014.4 |
| 20260505054338 | 59 | 226 | 1.0 | 4.0 | 0.00 | 0.00 | 0.00 | 30 | 1014.2 |
| 20260505053824 | 59 | 240 | 1.0 | 5.0 | 0.00 | 0.00 | 0.00 | 30 | 1014.3 |
| 20260505053329 | 59 | 252 | 0.0 | 8.0 | 0.00 | 0.00 | 0.00 | 30 | 1014.2 |
| 20260505052835 | 59 | 259 | 2.0 | 8.0 | 0.00 | 0.00 | 0.00 | 30 | 1014.1 |
| 20260505052324 | 59 | 259 | 1.0 | 7.0 | 0.00 | 0.00 | 0.00 | 30 | 1014.3 |
| 20260505051829 | 59 | 231 | 1.0 | 7.0 | 0.00 | 0.00 | 0.00 | 31 | 1014.1 |
| 20260505051334 | 59 | 298 | 1.0 | 4.0 | 0.00 | 0.00 | 0.00 | 32 | 1014.2 |
| 20260505050840 | 59 | 299 | 0.0 | 5.0 | 0.00 | 0.00 | 0.00 | 31 | 1014.2 |
| 20260505050326 | 59 | 241 | 1.0 | 4.0 | 0.00 | 0.00 | 0.00 | 31 | 1014.3 |
| 20260505041332 | 58 | 325 | 0.0 | 0.0 | 0.00 | 0.00 | 0.00 | 30 | 1014.3 |
| 20260505040837 | 58 | 325 | 0.0 | 0.0 | 0.00 | 0.00 | 0.00 | 29 | 1014.3 |
| 20260505040342 | 59 | 325 | 0.0 | 0.0 | 0.00 | 0.00 | 0.00 | 29 | 1014.3 |
| 20260505035828 | 59 | 325 | 0.0 | 0.0 | 0.00 | 0.00 | 0.00 | 28 | 1014.3 |
| 20260505035333 | 59 | 325 | 0.0 | 0.0 | 0.00 | 0.00 | 0.00 | 28 | 1014.4 |
| 20260505034841 | 59 | 325 | 0.0 | 0.0 | 0.00 | 0.00 | 0.00 | 28 | 1014.4 |
| 20260505034330 | 59 | 325 | 0.0 | 0.0 | 0.00 | 0.00 | 0.00 | 27 | 1014.3 |
| 20260505033836 | 60 | 325 | 0.0 | 0.0 | 0.00 | 0.00 | 0.00 | 26 | 1014.2 |
| 20260505033341 | 60 | 325 | 0.0 | 0.0 | 0.00 | 0.00 | 0.00 | 26 | 1014.2 |
| 20260505032826 | 60 | 325 | 0.0 | 3.0 | 0.00 | 0.00 | 0.00 | 26 | 1014.1 |
| 20260505032332 | 60 | 325 | 1.0 | 3.0 | 0.00 | 0.00 | 0.00 | 25 | 1014.1 |
| 20260505031837 | 61 | 325 | 0.0 | 7.0 | 0.00 | 0.00 | 0.00 | 25 | 1013.9 |
| 20260505031325 | 61 | 298 | 1.0 | 3.0 | 0.00 | 0.00 | 0.00 | 25 | 1013.9 |
| 20260505030833 | 61 | 297 | 0.0 | 2.0 | 0.00 | 0.00 | 0.00 | 24 | 1013.7 |
| 20260505030339 | 61 | 297 | 0.0 | 2.0 | 0.00 | 0.00 | 0.00 | 24 | 1013.7 |
| 20260505025825 | 61 | 297 | 0.0 | 5.0 | 0.00 | 0.00 | 0.00 | 24 | 1013.6 |
| 20260505025334 | 62 | 298 | 1.0 | 5.0 | 0.00 | 0.00 | 0.00 | 24 | 1013.5 |
| 20260505024840 | 62 | 257 | 1.0 | 6.0 | 0.00 | 0.00 | 0.00 | 23 | 1013.6 |
| 20260505024325 | 62 | 263 | 1.0 | 5.0 | 0.00 | 0.00 | 0.00 | 23 | 1013.4 |
| 20260505023831 | 62 | 265 | 1.0 | 4.0 | 0.00 | 0.00 | 0.00 | 22 | 1013.3 |
| 20260505023336 | 62 | 256 | 0.0 | 6.0 | 0.00 | 0.00 | 0.00 | 22 | 1013.4 |
| 20260505022824 | 63 | 256 | 2.0 | 6.0 | 0.00 | 0.00 | 0.00 | 21 | 1013.3 |
| 20260505022332 | 63 | 252 | 2.0 | 6.0 | 0.00 | 0.00 | 0.00 | 21 | 1013.3 |
| 20260505021838 | 63 | 261 | 3.0 | 7.0 | 0.00 | 0.00 | 0.00 | 21 | 1013.2 |
| 20260505021323 | 63 | 265 | 3.0 | 8.0 | 0.00 | 0.00 | 0.00 | 20 | 1013.1 |
| 20260505020828 | 63 | 254 | 3.0 | 8.0 | 0.00 | 0.00 | 0.00 | 20 | 1013.1 |
| 20260505020338 | 63 | 263 | 3.0 | 8.0 | 0.00 | 0.00 | 0.00 | 20 | 1013.2 |
| 20260505015823 | 64 | 271 | 2.0 | 10.0 | 0.00 | 0.00 | 0.00 | 20 | 1013.3 |
| 20260505015328 | 64 | 263 | 4.0 | 11.0 | 0.00 | 0.00 | 0.00 | 19 | 1013.2 |
| 20260505014833 | 64 | 238 | 3.0 | 11.0 | 0.00 | 0.00 | 0.00 | 19 | 1013.1 |
| 20260505014337 | 64 | 248 | 4.0 | 11.0 | 0.00 | 0.00 | 0.00 | 19 | 1012.9 |
| 20260505013822 | 64 | 210 | 3.0 | 11.0 | 0.00 | 0.00 | 0.00 | 18 | 1012.9 |
| 20260505013327 | 64 | 234 | 2.0 | 11.0 | 0.00 | 0.00 | 0.00 | 18 | 1012.9 |
| 20260505012833 | 65 | 232 | 3.0 | 11.0 | 0.00 | 0.00 | 0.00 | 18 | 1012.8 |
| 20260505012338 | 65 | 252 | 3.0 | 11.0 | 0.00 | 0.00 | 0.00 | 18 | 1012.8 |
| 20260505011823 | 65 | 231 | 4.0 | 13.0 | 0.00 | 0.00 | 0.00 | 18 | 1012.7 |
| 20260505011333 | 65 | 210 | 5.0 | 13.0 | 0.00 | 0.00 | 0.00 | 18 | 1012.7 |
| 20260505010837 | 65 | 228 | 3.0 | 10.0 | 0.00 | 0.00 | 0.00 | 18 | 1012.7 |
| 20260505010325 | 65 | 266 | 3.0 | 15.0 | 0.00 | 0.00 | 0.00 | 18 | 1012.7 |
| 20260505005830 | 66 | 193 | 4.0 | 15.0 | 0.00 | 0.00 | 0.00 | 17 | 1012.8 |
| 20260505005339 | 66 | 205 | 4.0 | 14.0 | 0.00 | 0.00 | 0.00 | 17 | 1012.8 |
| 20260505004824 | 66 | 245 | 5.0 | 14.0 | 0.00 | 0.00 | 0.00 | 17 | 1012.8 |
| 20260505004329 | 66 | 188 | 6.0 | 14.0 | 0.00 | 0.00 | 0.00 | 17 | 1012.9 |
| 20260505003834 | 66 | 196 | 7.0 | 14.0 | 0.00 | 0.00 | 0.00 | 17 | 1013.0 |
| 20260505003342 | 66 | 263 | 5.0 | 14.0 | 0.00 | 0.00 | 0.00 | 17 | 1013.1 |
| 20260505002827 | 66 | 241 | 3.0 | 13.0 | 0.00 | 0.00 | 0.00 | 17 | 1012.9 |
| 20260505002337 | 66 | 239 | 4.0 | 14.0 | 0.00 | 0.00 | 0.00 | 17 | 1012.9 |
| 20260505001842 | 66 | 271 | 5.0 | 14.0 | 0.00 | 0.00 | 0.00 | 17 | 1012.8 |
| 20260505001327 | 66 | 227 | 5.0 | 15.0 | 0.00 | 0.00 | 0.00 | 17 | 1012.9 |
| 20260505000832 | 66 | 282 | 4.0 | 15.0 | 0.00 | 0.00 | 0.00 | 17 | 1013.0 |
| 20260505000337 | 67 | 219 | 5.0 | 14.0 | 0.00 | 0.00 | 0.00 | 17 | 1013.1 |
| 20260504235842 | 67 | 244 | 6.0 | 14.0 | 0.00 | 0.00 | 0.00 | 17 | 1013.2 |
| 20260504235327 | 67 | 217 | 6.0 | 13.0 | 0.00 | 0.00 | 0.00 | 18 | 1013.1 |
| 20260504234835 | 67 | 211 | 5.0 | 13.0 | 0.00 | 0.00 | 0.00 | 18 | 1013.2 |
| 20260504234340 | 67 | 259 | 1.0 | 16.0 | 0.00 | 0.00 | 0.00 | 18 | 1013.2 |
| 20260504233825 | 67 | 260 | 6.0 | 16.0 | 0.00 | 0.00 | 0.00 | 18 | 1013.3 |
| 20260504233338 | 67 | 254 | 3.0 | 10.0 | 0.00 | 0.00 | 0.00 | 18 | 1013.2 |
| 20260504232822 | 67 | 250 | 5.0 | 13.0 | 0.00 | 0.00 | 0.00 | 18 | 1013.2 |
| 20260504232328 | 67 | 236 | 4.0 | 18.0 | 0.00 | 0.00 | 0.00 | 19 | 1013.1 |
| 20260504231833 | 67 | 249 | 8.0 | 18.0 | 0.00 | 0.00 | 0.00 | 18 | 1013.2 |
| 20260504231339 | 67 | 212 | 5.0 | 11.0 | 0.00 | 0.00 | 0.00 | 18 | 1013.1 |
| 20260504230824 | 68 | 209 | 5.0 | 14.0 | 0.00 | 0.00 | 0.00 | 19 | 1013.0 |
| 20260504230331 | 68 | 219 | 4.0 | 14.0 | 0.00 | 0.00 | 0.00 | 19 | 1013.4 |
| 20260504225836 | 67 | 243 | 6.0 | 14.0 | 0.00 | 0.00 | 0.00 | 18 | 1013.4 |
| 20260504225341 | 67 | 257 | 4.0 | 11.0 | 0.00 | 0.00 | 0.00 | 19 | 1013.5 |
| 20260504224827 | 67 | 242 | 5.0 | 13.0 | 0.00 | 0.00 | 0.00 | 19 | 1013.5 |
| 20260504224336 | 67 | 242 | 5.0 | 13.0 | 0.00 | 0.00 | 0.00 | 19 | 1013.6 |
| 20260504223842 | 67 | 217 | 5.0 | 13.0 | 0.00 | 0.00 | 0.00 | 19 | 1013.5 |
| 20260504223328 | 66 | 258 | 3.0 | 13.0 | 0.00 | 0.00 | 0.00 | 19 | 1013.6 |
| 20260504222833 | 66 | 248 | 6.0 | 14.0 | 0.00 | 0.00 | 0.00 | 18 | 1013.6 |
| 20260504222342 | 66 | 249 | 3.0 | 16.0 | 0.00 | 0.00 | 0.00 | 18 | 1013.6 |
| 20260504221827 | 66 | 248 | 4.0 | 16.0 | 0.00 | 0.00 | 0.00 | 18 | 1013.9 |
| 20260504221333 | 66 | 193 | 3.0 | 14.0 | 0.00 | 0.00 | 0.00 | 18 | 1013.8 |
| 20260504220838 | 66 | 252 | 5.0 | 16.0 | 0.00 | 0.00 | 0.00 | 17 | 1014.0 |
| 20260504220323 | 67 | 236 | 7.0 | 16.0 | 0.00 | 0.00 | 0.00 | 17 | 1014.1 |
| 20260504215828 | 67 | 206 | 5.0 | 15.0 | 0.00 | 0.00 | 0.00 | 17 | 1014.2 |
| 20260504215337 | 67 | 282 | 4.0 | 11.0 | 0.00 | 0.00 | 0.00 | 16 | 1014.2 |
| 20260504214825 | 67 | 251 | 5.0 | 17.0 | 0.00 | 0.00 | 0.00 | 16 | 1014.2 |
| 20260504214332 | 67 | 205 | 6.0 | 17.0 | 0.00 | 0.00 | 0.00 | 16 | 1014.2 |
| 20260504213837 | 67 | 234 | 6.0 | 17.0 | 0.00 | 0.00 | 0.00 | 16 | 1014.1 |
| 20260504213341 | 68 | 229 | 8.0 | 17.0 | 0.00 | 0.00 | 0.00 | 15 | 1014.2 |
| 20260504212826 | 68 | 157 | 7.0 | 16.0 | 0.00 | 0.00 | 0.00 | 14 | 1014.5 |
| 20260504212411 | 68 | 236 | 5.0 | 15.0 | 0.00 | 0.00 | 0.00 | 15 | 1014.4 |
| 20260504211837 | 68 | 215 | 3.0 | 10.0 | 0.00 | 0.00 | 0.00 | 16 | 1014.3 |
| 20260504211323 | 68 | 225 | 5.0 | 11.0 | 0.00 | 0.00 | 0.00 | 15 | 1014.5 |
| 20260504210828 | 67 | 245 | 5.0 | 11.0 | 0.00 | 0.00 | 0.00 | 15 | 1014.7 |
| 20260504210320 | 67 | 261 | 2.0 | 17.0 | 0.00 | 0.00 | 0.00 | 17 | 1014.8 |
| 20260504205830 | 67 | 268 | 6.0 | 19.0 | 0.00 | 0.00 | 0.00 | 16 | 1014.9 |
| 20260504205335 | 67 | 240 | 6.0 | 19.0 | 0.00 | 0.00 | 0.00 | 17 | 1015.0 |
| 20260504204841 | 67 | 257 | 4.0 | 13.0 | 0.00 | 0.00 | 0.00 | 18 | 1015.0 |
| 20260504204326 | 67 | 240 | 6.0 | 13.0 | 0.00 | 0.00 | 0.00 | 17 | 1015.1 |
| 20260504203831 | 67 | 241 | 6.0 | 17.0 | 0.00 | 0.00 | 0.00 | 17 | 1015.2 |
| 20260504203337 | 66 | 252 | 5.0 | 17.0 | 0.00 | 0.00 | 0.00 | 18 | 1015.3 |
| 20260504202842 | 66 | 137 | 6.0 | 16.0 | 0.00 | 0.00 | 0.00 | 18 | 1015.2 |
| 20260504202327 | 66 | 216 | 8.0 | 16.0 | 0.00 | 0.00 | 0.00 | 19 | 1015.4 |
| 20260504201833 | 67 | 193 | 5.0 | 13.0 | 0.00 | 0.00 | 0.00 | 19 | 1015.4 |
| 20260504201322 | 67 | 191 | 5.0 | 12.0 | 0.00 | 0.00 | 0.00 | 18 | 1015.4 |
| 20260504200827 | 67 | 232 | 3.0 | 13.0 | 0.00 | 0.00 | 0.00 | 19 | 1015.3 |